Lubbock, TX

11:29 PM CST on December 17, 2017 (GMT -0600)
Lubbock International

Weather History for KLBB - February, 2014

Change the Weather History Date:

Friday, February 28, 2014

  Actual Average Record
Temperature  
Mean Temperature 61 °F 48 °F  
Max Temperature 78 °F 62 °F 89 °F (2006)
Min Temperature 44 °F 33 °F 7 °F (1922)
Degree Days  
Heating Degree Days 4 17  
Month to date heating degree days 624 575  
Since 1 July heating degree days 2852 2739  
Cooling Degree Days 0 0  
Month to date cooling degree days 0 0  
Year to date cooling degree days 0 0  
Growing Degree Days 12 (Base 50)    
Moisture  
Dew Point 19 °F    
Average Humidity 36    
Maximum Humidity 65    
Minimum Humidity 7    
Precipitation  
Precipitation 0.00 in 0.03 in 0.44 in (2004)
Month to date precipitation 0.16 0.75  
Year to date precipitation 0.16 1.40  
Snow  
Snow 0.00 in 0.00 in 1.00 in (1922)
Month to date snowfall 1.8 1.6  
Since 1 July snowfall 4.2 7.4  
Snow Depth 0.00 in    
Sea Level Pressure  
Sea Level Pressure 29.68 in    
Wind  
Wind Speed 20 mph (West)    
Max Wind Speed 40 mph    
Max Gust Speed 51 mph    
Visibility 7 miles    
Events      
T = Trace of Precipitation, MM = Missing Value Source: NWS Daily Summary

Daily Weather History Graph

Daily Weather History Graph

Search for Another Location

Airport or City:

Trip Planner

Search our weather history database for the weather conditions in past years. The results will help you decide how hot, cold, wet, or windy it might be!

Date:

Astronomy

Feb. 28, 2014 Rise Set
Actual Time 7:16 AM CST 6:43 PM CST
Civil Twilight 6:51 AM CST 7:08 PM CST
Nautical Twilight 6:22 AM CST 7:37 PM CST
Astronomical Twilight 5:54 AM CST 8:05 PM CST
Moon 6:32 AM CST (2/28) 6:21 PM CST (2/28)
Length of Visible Light 12h 16m
Length of Day
11h 26m
Waning Crescent, 1% of the Moon is Illuminated
Feb 28
Waning Crescent
Mar 1
New
Mar 8
First Quarter
Mar 16
Full
Mar 23
Last Quarter

Hourly Weather History & Observations

Time (CST) Temp. Windchill Dew Point Humidity Pressure Visibility Wind Dir Wind Speed Gust Speed Precip Events Conditions
12:53 AM 51.1 °F - 36.0 °F 56% 29.57 in 10.0 mi SSW 17.3 mph - N/A   Scattered Clouds
1:53 AM 46.9 °F - 35.1 °F 63% 29.61 in 10.0 mi WSW 10.4 mph - N/A   Partly Cloudy
2:53 AM 45.0 °F 39.3 °F 32.0 °F 60% 29.58 in 10.0 mi WSW 11.5 mph - N/A   Clear
3:53 AM 46.0 °F 39.9 °F 30.0 °F 54% 29.57 in 10.0 mi West 13.8 mph - N/A   Clear
4:53 AM 50.0 °F - 32.0 °F 50% 29.56 in 10.0 mi West 20.7 mph - N/A   Clear
5:53 AM 53.1 °F - 28.9 °F 40% 29.56 in 4.0 mi West 28.8 mph 39.1 mph N/A   Widespread Dust
6:53 AM 52.0 °F - 26.1 °F 37% 29.60 in 7.0 mi West 28.8 mph 38.0 mph N/A   Clear
7:53 AM 53.1 °F - 21.9 °F 30% 29.63 in 5.0 mi West 29.9 mph 40.3 mph N/A   Widespread Dust
8:38 AM 55.9 °F - 21.0 °F 26% 29.72 in 3.0 mi West 32.2 mph 43.7 mph N/A   Widespread Dust
8:42 AM 55.9 °F - 21.0 °F 26% 29.72 in 2.0 mi WNW 34.5 mph 46.0 mph N/A   Widespread Dust
8:53 AM 57.0 °F - 21.0 °F 25% 29.65 in 1.5 mi West 35.7 mph 47.2 mph N/A   Widespread Dust
9:53 AM 61.0 °F - 19.9 °F 21% 29.66 in 1.5 mi WNW 35.7 mph 48.3 mph N/A   Widespread Dust
10:05 AM 62.1 °F - 19.9 °F 20% 29.75 in 1.5 mi WNW 35.7 mph 46.0 mph N/A   Widespread Dust
10:15 AM 63.0 °F - 19.0 °F 18% 29.75 in 2.5 mi WNW 33.4 mph 46.0 mph N/A   Widespread Dust
10:30 AM 64.9 °F - 19.0 °F 17% 29.76 in 3.0 mi WNW 33.4 mph 40.3 mph N/A   Widespread Dust
10:45 AM 64.9 °F - 19.0 °F 17% 29.76 in 3.0 mi WNW 31.1 mph 39.1 mph N/A   Widespread Dust
10:53 AM 66.0 °F - 19.0 °F 17% 29.68 in 3.0 mi WNW 31.1 mph 44.9 mph N/A   Widespread Dust
11:53 AM 69.1 °F - 17.1 °F 14% 29.70 in 7.0 mi WNW 27.6 mph 38.0 mph N/A   Partly Cloudy
12:53 PM 71.1 °F - 15.1 °F 12% 29.68 in 7.0 mi WNW 28.8 mph 38.0 mph N/A   Partly Cloudy
1:53 PM 75.0 °F - 12.0 °F 9% 29.66 in 10.0 mi West 28.8 mph 39.1 mph N/A   Mostly Cloudy
2:53 PM 75.9 °F - 10.0 °F 8% 29.65 in 9.0 mi West 24.2 mph 33.4 mph N/A   Mostly Cloudy
3:53 PM 78.1 °F - 9.0 °F 7% 29.64 in 8.0 mi West 18.4 mph 28.8 mph N/A   Overcast
4:53 PM 77.0 °F - 8.1 °F 7% 29.64 in 9.0 mi West 25.3 mph 35.7 mph N/A   Mostly Cloudy
5:53 PM 73.9 °F - 8.1 °F 8% 29.67 in 10.0 mi West 20.7 mph - N/A   Partly Cloudy
6:53 PM 66.9 °F - 12.0 °F 12% 29.70 in 10.0 mi West 10.4 mph - N/A   Partly Cloudy
7:53 PM 59.0 °F - 15.1 °F 18% 29.74 in 10.0 mi West 9.2 mph - N/A   Partly Cloudy
8:53 PM 57.0 °F - 16.0 °F 20% 29.77 in 10.0 mi SW 4.6 mph - N/A   Clear
9:53 PM 55.9 °F - 16.0 °F 21% 29.77 in 10.0 mi WSW 6.9 mph - N/A   Clear
10:53 PM 53.1 °F - 15.1 °F 22% 29.79 in 10.0 mi West 8.1 mph - N/A   Clear
11:53 PM 46.0 °F 43.1 °F 14.0 °F 28% 29.80 in 10.0 mi WSW 5.8 mph - N/A   Clear